Home > Weather > Funafuti > Past weeks

Flag for Tuvalu Weather for the Past 2 Weeks in Funafuti, Tuvalu

Now
82 °F

Passing clouds.


Feels Like: 91 °F
Forecast: 82 / 87 °F
Wind: 3 mph from North

Location: Funafuti

Current Time: May 5, 2016 at 12:12:39 AM

Latest Report: May 4, 2016 at 11:00 PM


Visibility: N/A

Pressure: 29.56 "Hg

Humidity: 84%

Dew Point: 77 °F

Location of FunafutiLocation

Historic Weather in Funafuti — Graph

°F

Funafuti Temperature Yesterday

Maximum temperature yesterday: 90 °F (at 1:00 PM)
Minimum temperature yesterday: 79 °F (at 5:00 AM)
Average temperature yesterday: 84 °F

High & Low Weather Summary for the Past Weeks

 TemperatureHumidityPressure
High91 °F (Apr 29, 11:00 AM)94% (Apr 30, 4:00 AM)29.89 "Hg (Apr 30, 4:00 AM)
Low77 °F (Apr 30, 8:00 AM)59% (Apr 29, 11:00 AM)29.56 "Hg (May 4, 11:00 PM)
Average85 °F78%29.79 "Hg
* Reported Apr 19 11:00 PM — May 4 11:00 PM, Funafuti, Weather by CustomWeather, © 2016

Note: Actual official high and low records may vary slightly from our data, if they occured in-between our weather recording intervals... More about our weather records

Advertising

Funafuti Weather History for the Previous 24 Hours

Scroll right to see more
 ConditionsComfort  
Time TempWeatherWind HumidityBarometerVisibility
11:00 PM
Wed, May 4
82 °FPassing clouds.3 mph84%29.56 "HgN/A
10:00 PM82 °FPassing clouds.3 mph84%29.86 "HgN/A
9:00 PM84 °FPassing clouds.3 mph79%29.89 "HgN/A
8:00 PM84 °FPassing clouds.2 mph79%29.86 "HgN/A
7:00 PM84 °FPassing clouds.3 mph79%29.83 "HgN/A
6:00 PM86 °FPassing clouds.2 mph75%29.80 "HgN/A
5:00 PM86 °FScattered clouds.No wind75%29.80 "HgN/A
4:00 PM88 °FPassing clouds.3 mph75%29.80 "HgN/A
3:00 PM88 °FScattered clouds.1 mph70%29.80 "HgN/A
2:00 PM88 °FOvercast.No wind75%29.80 "HgN/A
1:00 PM90 °FScattered clouds.No wind63%29.83 "HgN/A
12:00 PM88 °FScattered clouds.No wind70%29.86 "HgN/A
7:00 AM84 °FScattered clouds.1 mph79%29.86 "HgN/A
6:00 AM79 °FPassing clouds.No wind94%29.80 "HgN/A
5:00 AM79 °FPassing clouds.No wind89%29.80 "HgN/A
3:00 AM81 °FPassing clouds.No wind84%29.80 "HgN/A
2:00 AM81 °FPassing clouds.No wind84%29.80 "HgN/A
1:00 AM81 °FPassing clouds.No wind84%29.83 "HgN/A
12:00 AM81 °FSprinkles. Overcast.No wind84%29.83 "HgN/A
Weather by CustomWeather, © 2016

See weather overviewHow to use our weather pages